Location: Ash Swamp
(41.5170°N, 74.6157°W)
Time: 16:00:14
(UTC+00:00)

Cosmos 1633 - Pass Details

Date: 14 July 2020
Orbit: 462 x 482 km, 82.5° (Epoch: 04 August)

Event Time Altitude Azimuth Distance (km) Brightness Sun altitude
Exits shadow 04:39:10 26° 309° (NW) 983 4.5 -26.6°
Drops below altitude 10° 04:41:30 10° 345° (NNW) 1,651 6.2 -26.7°
Sets 04:43:48 0° 357° (N) 2,531 7.5 -26.7°
